軌道要素
Epoch 2022 Jan. 21.0 TT = JDT 2459600.5
T 2022 Feb. 28.90826 TT Rudenko
q 6.1192136 (2000.0) P Q
z -0.0001277 Peri. 148.18568 -0.14237717 -0.71531108
+/-0.0000082 Node 299.87278 +0.65862380 +0.44749783
e 1.0007816 Incl. 52.09000 +0.73887985 -0.53672689
From 349 observations 2021 Sept. 27-2022 Apr. 7, mean residual 0".4.
|